Location: Zagreb
(45.8000°N, 16.0000°E)
Time: 09:41:46
(UTC+01:00)

BlueWalker 3 - Pass Details

Date: 12 December 2022
Orbit: 499 x 517 km, 53.2° (Epoch: 01 February)

Event Time Altitude Azimuth Distance (km) Brightness Sun altitude
Rises 17:15:37 0° 300° (WNW) 2,630 6.2 -10.7°
Reaches altitude 10° 17:17:51 10° 296° (WNW) 1,737 5.3 -11.1°
Maximum altitude 17:21:42 55° 218° (SW) 614 2.7 -11.7°
Drops below altitude 10° 17:25:30 10° 140° (SE) 1,715 4.4 -12.3°
Sets 17:27:42 0° 136° (SE) 2,592 5.3 -12.7°
